Location: T. Spence Memorial Observatory
(32.7356°N, 82.2098°W)
Time: 00:08:48
(UTC-04:00)

Daily predictions for brighter satellites

Satellite Brightness Start Highest point End
(mag) Time Altitude Azimuth Time Altitude Azimuth Time Altitude Azimuth
USA 267 4.4 04:18:35 10° ESE 04:22:39 38° E 04:22:39 38° E
Milstar 3 2.9 05:05:11 61° SSE 05:05:11 61° SSE 05:12:06 10° E
CZ-4B R/B 4.1 05:12:18 10° NNE 05:17:34 47° E 05:22:53 10° S
Cosmos 1943 Rocket 3.1 05:23:57 36° N 05:23:57 36° N 05:27:19 10° NNE
CZ-4C R/B 3.9 05:19:05 10° NNW 05:26:07 46° NE 05:33:45 10° SE
Cosmos 1825 Rocket 3.7 05:35:39 73° ENE 05:35:39 73° ENE 05:39:53 10° N
Nadezhda 1 Rocket 3.9 05:33:23 22° SSW 05:37:42 75° W 05:44:06 10° N
SJ 16-02 4.1 05:38:00 10° SE 05:41:04 19° E 05:44:08 10° NE
Cosmos 2074 Rocket 3.9 05:36:05 10° NNW 05:42:17 62° W 05:48:26 10° S
Cosmos 1470 3.2 05:44:46 10° N 05:48:38 60° E 05:52:27 10° SSE
ADEOS II 3.6 05:44:16 10° N 05:46:16 21° NNW 05:46:16 21° NNW
Cosmos 1340 Rocket 4.0 05:51:45 31° N 05:51:45 31° N 05:54:00 10° N
Meteor PRIRODA 3.7 05:47:05 10° NNE 05:50:50 76° E 05:51:51 46° S
NOSS 3-1 (C) 3.4 05:48:17 18° SSW 05:52:27 72° ESE 05:58:32 10° NE
USA 229 DEB 3.7 05:50:33 42° WSW 05:52:27 54° NW 05:59:12 10° NNE
USA 229 3.7 05:50:36 42° WSW 05:52:33 55° WNW 05:59:17 10° NNE
Shenzhou-11 Module 4.1 05:55:35 20° NNE 05:55:35 20° NNE 05:57:56 10° ENE
Cosmos 2369 Rocket 4.0 05:57:54 15° NNW 05:57:54 15° NNW 05:59:29 10° NNW
NOSS 3-1 (A) 4.0 05:51:29 10° S 05:56:53 52° ESE 06:02:48 10° NE
Meteor 1-31 Rocket 2.6 05:56:58 10° NNE 06:00:46 87° ESE 06:04:33 10° SSW
Okean O Rocket 2.2 05:58:07 10° N 06:01:30 39° NW 06:01:30 39° NW
Delta 128 4.5 06:04:07 32° SW 06:05:13 37° SSW 06:09:25 10° SE
IRS-1C Rocket 4.0 06:00:50 10° N 06:06:04 66° WNW 06:11:16 10° SSW
USA 267 3.8 06:02:04 10° S 06:07:55 35° SW 06:10:03 29° W
Meteor 2-5 Rocket 4.0 06:02:50 10° S 06:08:45 77° E 06:14:37 10° NNE
Cosmos 2154 Rocket 3.9 06:03:51 10° N 06:10:11 72° W 06:16:25 10° S
Okean-O 3.6 06:07:50 10° NNE 06:12:08 48° E 06:16:24 10° S
Cosmos 1707 2.8 06:10:26 24° SSW 06:12:31 53° W 06:16:23 10° N
Cosmos 1833 4.1 06:13:42 10° NNW 06:19:14 67° WSW 06:24:46 10° S
Cosmos 1758 Rocket 3.9 06:15:43 10° SSW 06:19:56 42° W 06:24:12 10° N
CZ-4B R/B 4.1 06:15:42 10° N 06:20:04 57° WNW 06:24:29 10° SSW
Cosmos 1953 4.1 06:24:03 16° SW 06:24:03 16° SW 06:25:11 10° SSW
Cosmos 1356 Rocket 3.3 06:18:05 10° SSW 06:22:18 77° W 06:26:37 10° N
OAO 2 Rocket 3.4 06:22:42 26° WNW 06:25:29 67° N 06:30:25 10° E
SL-8 Rocket 4.5 06:20:41 10° N 06:26:58 66° E 06:33:14 10° SSE
Cosmos 372 Rocket 4.1 06:24:10 10° SSW 06:29:20 82° ESE 06:34:35 10° NNE
Cosmos 1125 Rocket 3.5 06:24:36 10° SSW 06:29:49 88° WNW 06:35:07 10° NNE
NOAA 6 4.2 06:25:09 10° NNE 06:30:20 80° ESE 06:35:29 10° S
EO 1 Del DPAF 3.6 06:29:23 10° SSE 06:33:10 68° ENE 06:36:59 10° N
Cosmos-2242 2.9 06:30:46 10° N 06:35:04 81° W 06:39:22 10° S
COSMO-SKYMED 1 3.4 06:31:28 10° SSE 06:35:41 53° ENE 06:39:55 10° N
Cosmos 1733 4.2 06:33:14 10° NW 06:36:23 24° W 06:39:30 10° SW
Cosmos 1378 4.2 06:36:16 15° SW 06:38:30 24° WNW 06:41:38 10° NNW
CZ-3 Stage 3 3.7 06:35:59 18° W 06:39:31 81° S 07:04:55 10° E
Cosmos 1242 Rocket 3.7 06:40:42 10° NW 06:43:40 23° W 06:46:37 10° SW
Meteor 1-16 Rocket 4.2 06:41:35 10° NNW 06:47:12 67° W 06:52:58 10° S
Cosmos 2218 Rocket 4.2 06:41:26 10° N 06:47:40 81° E 06:53:59 10° S
Meteor 2-21 4.4 06:44:26 10° NNW 06:50:24 61° W 06:56:22 10° S
In-Cosmos 22 4.2 06:46:49 10° S 06:52:20 84° W 06:58:02 10° N
Tiangong 2 2.8 06:50:45 10° NW 06:53:31 26° NNE 06:56:17 10° E
Cosmos 2341 Rocket 4.4 06:51:17 10° NNW 06:57:12 41° W 07:03:06 10° SSW
Cosmos 2181 Rocket 4.4 06:51:27 10° SSW 06:57:14 39° W 07:02:59 10° NNW
Cosmos 1842 Rocket 4.0 06:52:59 10° N 06:57:19 67° E 07:01:37 10° SSE
GPS 2-04 Rocket1 2.5 06:54:00 12° WNW 06:57:24 77° NNE 07:00:58 10° E
CZ-4B R/B 4.5 06:53:59 10° NNW 06:57:44 19° WNW 07:01:31 10° WSW
Centaur D-1AR AC-48 3.5 06:55:46 10° SW 06:59:23 21° S 07:02:17 10° SE
Cosmos 1048 Rocket 4.1 07:00:10 10° NNW 07:05:22 86° ENE 07:10:37 10° SSE
Cosmos 2221 4.5 07:02:51 10° NNE 07:06:52 34° E 07:10:52 10° SE
CZ-3 R/B 3.3 06:47:54 11° W 07:06:52 39° SW 07:12:52 10° SSE
Cosmos 44 4.3 07:03:42 10° WNW 07:07:31 25° WSW 07:11:29 10° SSW
Meteor 1-28 Rocket 4.2 07:06:18 10° SSW 07:09:31 26° W 07:12:46 10° NW
Meteor 2-8 Rocket 4.5 07:06:57 10° S 07:13:04 78° W 07:19:14 10° N
